Redmond, OR

1:11 AM PDT on October 18, 2017 (GMT -0700)
Roberts Field Airport

Weather History for KRDM - April, 2014

Change the Weather History Date:

Saturday, April 12, 2014

  Actual Average Record
Temperature  
Mean Temperature 43 °F 44 °F  
Max Temperature 62 °F 59 °F 82 °F (2000)
Min Temperature 24 °F 28 °F 15 °F (1971)
Degree Days  
Heating Degree Days 22 21  
Month to date heating degree days 235 266  
Since 1 July heating degree days 5749 5717  
Cooling Degree Days 0 0  
Month to date cooling degree days 0 0  
Year to date cooling degree days 0 0  
Moisture  
Dew Point 23 °F    
Average Humidity 52    
Maximum Humidity 81    
Minimum Humidity 22    
Precipitation  
Precipitation 0.00 in 0.02 in 0.45 in (1992)
Month to date precipitation 0.29 0.26  
Year to date precipitation 2.80 2.54  
Sea Level Pressure  
Sea Level Pressure 29.98 in    
Wind  
Wind Speed 6 mph (NNW)    
Max Wind Speed 17 mph    
Max Gust Speed 23 mph    
Visibility 10 miles    
Events      
T = Trace of Precipitation, MM = Missing Value Source: NWS Daily Summary

Daily Weather History Graph

Daily Weather History Graph

Search for Another Location

Airport or City:

Trip Planner

Search our weather history database for the weather conditions in past years. The results will help you decide how hot, cold, wet, or windy it might be!

Date:

Astronomy

Apr. 12, 2014 Rise Set
Actual Time 6:25 AM PDT 7:45 PM PDT
Civil Twilight 5:56 AM PDT 8:15 PM PDT
Nautical Twilight 5:19 AM PDT 8:51 PM PDT
Astronomical Twilight 4:41 AM PDT 9:30 PM PDT
Moon 5:24 PM PDT (4/12) 5:01 AM PDT (4/12)
Length of Visible Light 14h 19m
Length of Day
13h 19m
Waxing Gibbous, 93% of the Moon is Illuminated
Apr 12
Waxing Gibbous
Apr 15
Full
Apr 22
Last Quarter
Apr 28
New
May 6
First Quarter

Hourly Weather History & Observations

Time (PDT) Temp. Windchill Dew Point Humidity Pressure Visibility Wind Dir Wind Speed Gust Speed Precip Events Conditions
12:56 AM 37.9 °F - 26.1 °F 62% 29.96 in 10.0 mi Calm Calm - N/A   Clear
1:56 AM 30.9 °F 27.5 °F 23.0 °F 72% 29.95 in 10.0 mi South 3.5 mph - N/A   Clear
2:56 AM 32.0 °F - 23.0 °F 69% 29.95 in 10.0 mi Calm Calm - N/A   Clear
3:56 AM 28.9 °F 25.2 °F 21.9 °F 75% 29.95 in 10.0 mi SSE 3.5 mph - N/A   Clear
4:56 AM 30.0 °F 26.5 °F 23.0 °F 75% 29.95 in 10.0 mi South 3.5 mph - N/A   Clear
5:56 AM 26.1 °F 20.5 °F 21.0 °F 81% 29.96 in 10.0 mi South 4.6 mph - N/A   Clear
6:56 AM 26.1 °F - 21.0 °F 81% 29.98 in 10.0 mi Calm Calm - N/A   Clear
7:56 AM 37.0 °F 34.5 °F 25.0 °F 62% 29.98 in 10.0 mi SW 3.5 mph - N/A   Clear
8:56 AM 43.0 °F 41.3 °F 28.9 °F 58% 29.99 in 10.0 mi West 3.5 mph - N/A   Clear
9:56 AM 48.9 °F - 26.1 °F 41% 29.98 in 10.0 mi NNW 8.1 mph - N/A   Clear
10:56 AM 52.0 °F - 21.9 °F 31% 29.98 in 10.0 mi North 11.5 mph 18.4 mph N/A   Clear
11:56 AM 53.1 °F - 19.9 °F 27% 29.98 in 10.0 mi Variable 5.8 mph - N/A   Clear
12:56 PM 55.9 °F - 21.0 °F 26% 29.97 in 10.0 mi NW 10.4 mph 20.7 mph N/A   Clear
1:56 PM 57.9 °F - 21.9 °F 25% 29.96 in 10.0 mi North 8.1 mph - N/A   Clear
2:56 PM 61.0 °F - 21.9 °F 22% 29.95 in 10.0 mi Variable 6.9 mph - N/A   Clear
3:56 PM 61.0 °F - 21.0 °F 21% 29.94 in 10.0 mi NNW 11.5 mph 20.7 mph N/A   Clear
4:56 PM 60.1 °F - 21.0 °F 22% 29.94 in 10.0 mi North 15.0 mph - N/A   Clear
5:56 PM 60.1 °F - 21.9 °F 23% 29.95 in 10.0 mi North 12.7 mph - N/A   Clear
6:56 PM 57.0 °F - 26.1 °F 30% 29.97 in 10.0 mi North 12.7 mph - N/A   Clear
7:56 PM 51.1 °F - 26.1 °F 38% 29.99 in 10.0 mi North 11.5 mph - N/A   Clear
8:56 PM 48.0 °F - 25.0 °F 41% 30.02 in 10.0 mi North 5.8 mph - N/A   Clear
9:56 PM 45.0 °F 43.5 °F 25.0 °F 46% 30.05 in 10.0 mi North 3.5 mph - N/A   Clear
10:56 PM 34.0 °F - 23.0 °F 64% 30.09 in 10.0 mi Calm Calm - N/A   Clear
11:56 PM 30.9 °F - 21.9 °F 69% 30.12 in 10.0 mi Calm Calm - N/A   Clear